FLOCK 2K-40 (42865 NORAD) Tracking and Keplerian Element Data

This shows tracking and keplerian element data for the satellite.

Feedback or suggestion? Click here.




ElementValue
Catalog42865
NameFLOCK 2K-40
Epoch Orbit15250
Epoch Day94.10185384
Epoch Year2020
RAAN326.219
Inclination96.9048
Eccentricity0.0007573
Argument of Perigee244.8716
Mean Anonmoly115.1746
Mean Motion15.40844969
Decay Rate2.969E-05
L11 42865U 17042AS 20094.10185384 .00002969 00000-0 74223-4 0 9992
L22 42865 96.9048 326.2190 0007573 244.8716 115.1746 15.40844969152508

Live tracking and technical data element details for FLOCK 2K-40 (NORAD 42865). FLOCK 2K-40 can be tracked NOW for your location showing map with azimuth and elevation plus other details from your city location.

Track the satellite on the map from your city or location and see movement details for azimuth, elevation, latitude, longitude, range, height, and movement on the map or in text.







IsCatalogInMostPopularTable: catalog: 42865, numindb: 415
Update: records affected: 1



GetName: 42865 FLOCK 2K-40

Hit Count: updated at: Thu, 09 Apr 2020 16:20:26 GMT